Location: Rio Negrinho
(26.2394°S, 49.4999°W)
Time: 12:52:22
(UTC+00:00)

N. Korean satellite - Pass Details

Date: 06 August 2021
Orbit: 448 x 499 km, 97.3° (Epoch: 16 September)

Event Time Altitude Azimuth Distance (km) Brightness Sun altitude
Rises 21:19:34 0° 194° (SSW) 2,571 10.2 -6.3°
Reaches altitude 10° 21:22:22 10° 218° (SW) 1,692 9.6 -6.9°
Maximum altitude 21:24:25 15° 253° (WSW) 1,427 9.9 -7.3°
Drops below altitude 10° 21:26:29 10° 287° (WNW) 1,693 11.1 -7.8°
Sets 21:29:18 0° 312° (NW) 2,573 11.5 -8.4°
